User: anonymous   Login
Location: Unspecified
(0.0000°N, 0.0000°E)
Time: 23:57:25
(UTC+01:00)
Language:

Cosmos 1758 - Orbit

View from above orbital plane
View from above orbital plane
View from above satellite
View from above satellite

Ground track
Ground track

The orbit data is extracted from the following two-line orbital elements,

1 16791U 86046A   15027.48369793  .00002603  00000-0  19459-3 0  2380
2 16791 082.4719 160.4171 0017880 168.8386 191.3240 15.02276964554681
Epoch (UTC): 27 January 2015 11:36:31
Eccentricity: 0.0017880
inclination: 82.4719°
perigee height: 547 km
apogee height: 572 km
right ascension of ascending node: 160.4171°
argument of perigee: 168.8386°
revolutions per day: 15.02276964
mean anomaly at epoch: 191.3240°
orbit number at epoch: 55468

The dashed part of the orbit path shows where the satellite is in the earth's shadow,  

DLR